| time (UTC) | temp C | wind direction | speed KPH | gust KPH | rain 1hr cm | rain 24hr cm | rain mn cm | humidity % | barometer mb |
| 20260904042039 | 14 | 268 | 19.3 | 43.5 | 0.00 | 0.10 | 0.10 | 75 | 1005.3 |
| 20260904041606 | 14 | 344 | 20.9 | 41.8 | 0.00 | 0.10 | 0.10 | 74 | 1005.2 |
| 20260904041039 | 14 | 243 | 22.5 | 43.5 | 0.00 | 0.10 | 0.10 | 74 | 1005.4 |
| 20260904040542 | 14 | 289 | 24.1 | 43.5 | 0.00 | 0.10 | 0.10 | 74 | 1005.4 |
| 20260904040100 | 14 | 307 | 19.3 | 45.1 | 0.00 | 0.10 | 0.10 | 74 | 1005.5 |
| 20260904035541 | 15 | 248 | 20.9 | 46.7 | 0.00 | 0.10 | 0.10 | 75 | 1005.6 |
| 20260904035040 | 15 | 229 | 29.0 | 46.7 | 0.00 | 0.10 | 0.10 | 74 | 1005.6 |
| 20260904034553 | 15 | 259 | 27.4 | 43.5 | 0.00 | 0.10 | 0.10 | 74 | 1005.6 |
| 20260904034039 | 15 | 304 | 20.9 | 38.6 | 0.00 | 0.10 | 0.10 | 76 | 1005.2 |
| 20260904033538 | 15 | 250 | 19.3 | 48.3 | 0.00 | 0.10 | 0.10 | 78 | 1005.3 |
| 20260904033104 | 15 | 265 | 22.5 | 48.3 | 0.00 | 0.10 | 0.10 | 79 | 1005.1 |
| 20260904032538 | 15 | 296 | 29.0 | 45.1 | 0.00 | 0.10 | 0.10 | 76 | 1005.0 |
| 20260904032038 | 15 | 297 | 20.9 | 48.3 | 0.00 | 0.10 | 0.10 | 78 | 1005.0 |
| 20260904031606 | 15 | 254 | 24.1 | 48.3 | 0.00 | 0.10 | 0.10 | 77 | 1004.9 |
| 20260904031038 | 15 | 253 | 24.1 | 48.3 | 0.00 | 0.10 | 0.10 | 76 | 1004.9 |
| 20260904030539 | 15 | 254 | 29.0 | 49.9 | 0.00 | 0.10 | 0.10 | 77 | 1004.8 |
| 20260904030056 | 15 | 254 | 27.4 | 49.9 | 0.00 | 0.10 | 0.10 | 76 | 1004.8 |
| 20260904025539 | 15 | 240 | 24.1 | 48.3 | 0.00 | 0.10 | 0.10 | 76 | 1004.7 |
| 20260904025039 | 15 | 235 | 22.5 | 53.1 | 0.00 | 0.10 | 0.10 | 76 | 1004.6 |
| 20260904024549 | 15 | 250 | 25.7 | 53.1 | 0.00 | 0.10 | 0.10 | 75 | 1004.3 |
| 20260904024039 | 15 | 278 | 27.4 | 56.3 | 0.00 | 0.10 | 0.10 | 76 | 1004.0 |
| 20260904023538 | 15 | 302 | 25.7 | 56.3 | 0.00 | 0.10 | 0.10 | 78 | 1003.7 |
| 20260904023102 | 15 | 271 | 29.0 | 59.5 | 0.00 | 0.10 | 0.10 | 78 | 1003.2 |
| 20260904022542 | 15 | 290 | 32.2 | 59.5 | 0.00 | 0.10 | 0.10 | 78 | 1003.2 |
| 20260904022039 | 15 | 247 | 33.8 | 59.5 | 0.00 | 0.10 | 0.10 | 80 | 1003.0 |
| 20260904021557 | 15 | 248 | 32.2 | 57.9 | 0.00 | 0.10 | 0.10 | 79 | 1002.9 |
| 20260904021038 | 15 | 249 | 33.8 | 54.7 | 0.00 | 0.10 | 0.10 | 80 | 1002.8 |
| 20260904020539 | 16 | 275 | 27.4 | 53.1 | 0.00 | 0.10 | 0.10 | 81 | 1003.0 |
| 20260904020056 | 15 | 277 | 35.4 | 56.3 | 0.00 | 0.10 | 0.10 | 82 | 1003.3 |
| 20260904015539 | 16 | 248 | 32.2 | 59.5 | 0.00 | 0.10 | 0.10 | 82 | 1003.0 |
| 20260904015039 | 16 | 293 | 29.0 | 59.5 | 0.00 | 0.10 | 0.10 | 81 | 1003.3 |
| 20260904014554 | 16 | 264 | 30.6 | 59.5 | 0.00 | 0.10 | 0.10 | 81 | 1003.3 |
| 20260904014039 | 16 | 251 | 25.7 | 57.9 | 0.00 | 0.10 | 0.10 | 83 | 1003.5 |
| 20260904013539 | 16 | 312 | 27.4 | 57.9 | 0.00 | 0.10 | 0.10 | 84 | 1003.5 |
| 20260904013047 | 16 | 281 | 29.0 | 53.1 | 0.00 | 0.10 | 0.10 | 82 | 1003.5 |
| 20260904012539 | 16 | 244 | 22.5 | 46.7 | 0.00 | 0.10 | 0.10 | 83 | 1003.5 |
| 20260904012041 | 16 | 265 | 25.7 | 62.8 | 0.00 | 0.10 | 0.10 | 84 | 1003.6 |
| 20260904011559 | 16 | 280 | 30.6 | 62.8 | 0.00 | 0.10 | 0.10 | 83 | 1003.4 |
| 20260904011039 | 16 | 292 | 32.2 | 59.5 | 0.00 | 0.10 | 0.10 | 83 | 1003.5 |
| 20260904010539 | 16 | 255 | 27.4 | 62.8 | 0.00 | 0.10 | 0.10 | 83 | 1003.5 |
| 20260904010057 | 16 | 229 | 22.5 | 62.8 | 0.00 | 0.10 | 0.10 | 85 | 1003.9 |
| 20260904005541 | 16 | 273 | 20.9 | 46.7 | 0.00 | 0.10 | 0.10 | 83 | 1004.2 |
| 20260904005039 | 16 | 274 | 24.1 | 59.5 | 0.00 | 0.10 | 0.10 | 86 | 1004.3 |
| 20260904004553 | 16 | 257 | 25.7 | 61.2 | 0.00 | 0.10 | 0.10 | 85 | 1004.4 |
| 20260904004039 | 16 | 246 | 29.0 | 61.2 | 0.00 | 0.10 | 0.10 | 84 | 1004.3 |
| 20260904003540 | 16 | 260 | 24.1 | 45.1 | 0.00 | 0.10 | 0.10 | 86 | 1004.1 |
| 20260904003100 | 15 | 244 | 25.7 | 59.5 | 0.00 | 0.10 | 0.10 | 88 | 1003.8 |
| 20260904002538 | 15 | 300 | 24.1 | 59.5 | 0.00 | 0.10 | 0.10 | 88 | 1003.6 |
| 20260904002041 | 15 | 279 | 32.2 | 70.8 | 0.00 | 0.10 | 0.10 | 88 | 1003.1 |
| 20260904001559 | 15 | 261 | 40.2 | 70.8 | 0.00 | 0.10 | 0.10 | 88 | 1003.2 |
| 20260904001040 | 16 | 287 | 41.8 | 70.8 | 0.00 | 0.10 | 0.10 | 84 | 1003.5 |
| 20260904000542 | 16 | 300 | 37.0 | 64.4 | 0.00 | 0.10 | 0.10 | 83 | 1003.2 |
| 20260904000056 | 16 | 275 | 35.4 | 69.2 | 0.00 | 0.10 | 0.10 | 84 | 1003.4 |
| 20260903235543 | 16 | 257 | 37.0 | 69.2 | 0.00 | 0.10 | 0.10 | 84 | 1003.2 |
| 20260903235039 | 16 | 264 | 32.2 | 66.0 | 0.00 | 0.10 | 0.10 | 85 | 1003.2 |
| 20260903234553 | 16 | 259 | 32.2 | 64.4 | 0.00 | 0.10 | 0.10 | 86 | 1003.3 |
| 20260903234039 | 16 | 284 | 32.2 | 67.6 | 0.00 | 0.10 | 0.10 | 86 | 1003.3 |
| 20260903233539 | 16 | 288 | 27.4 | 67.6 | 0.03 | 0.10 | 0.10 | 86 | 1003.3 |
| 20260903233241 | 16 | 322 | 32.2 | 64.4 | 0.03 | 0.10 | 0.10 | 86 | 1003.1 |
| 20260903232536 | 16 | 293 | 30.6 | 64.4 | 0.03 | 0.10 | 0.10 | 88 | 1003.4 |
| 20260903232036 | 15 | 283 | 32.2 | 67.6 | 0.03 | 0.10 | 0.10 | 89 | 1003.2 |
| 20260903231607 | 15 | 296 | 27.4 | 67.6 | 0.05 | 0.10 | 0.10 | 89 | 1003.7 |
| 20260903231040 | 15 | 296 | 35.4 | 67.6 | 0.08 | 0.10 | 0.10 | 90 | 1003.7 |
| 20260903230540 | 15 | 292 | 37.0 | 61.2 | 0.08 | 0.10 | 0.10 | 92 | 1003.6 |
| 20260903225540 | 14 | 273 | 32.2 | 56.3 | 0.08 | 0.08 | 0.08 | 92 | 1004.1 |
| 20260903225042 | 14 | 267 | 22.5 | 45.1 | 0.08 | 0.08 | 0.08 | 93 | 1004.1 |
| 20260903224602 | 13 | 316 | 22.5 | 45.1 | 0.08 | 0.08 | 0.08 | 93 | 1003.8 |
| 20260903224042 | 14 | 269 | 22.5 | 45.1 | 0.08 | 0.08 | 0.08 | 93 | 1004.0 |
| 20260903223539 | 14 | 241 | 24.1 | 41.8 | 0.05 | 0.08 | 0.08 | 92 | 1004.0 |
| 20260903223059 | 14 | 273 | 25.7 | 46.7 | 0.05 | 0.08 | 0.08 | 91 | 1004.0 |
| 20260903222539 | 14 | 285 | 22.5 | 46.7 | 0.05 | 0.08 | 0.08 | 91 | 1003.9 |
| 20260903222040 | 15 | 249 | 22.5 | 40.2 | 0.05 | 0.08 | 0.08 | 90 | 1003.6 |
| 20260903221557 | 15 | 264 | 24.1 | 40.2 | 0.03 | 0.05 | 0.05 | 89 | 1003.7 |
| 20260903221039 | 15 | 276 | 20.9 | 41.8 | 0.00 | 0.03 | 0.03 | 88 | 1004.0 |
| 20260903220542 | 15 | 273 | 25.7 | 41.8 | 0.00 | 0.03 | 0.03 | 88 | 1004.0 |
| 20260903220055 | 15 | 267 | 22.5 | 41.8 | 0.00 | 0.00 | 0.00 | 87 | 1003.9 |
| 20260903215540 | 15 | 277 | 14.5 | 38.6 | 0.00 | 0.00 | 0.00 | 87 | 1004.2 |
| 20260903215039 | 15 | 260 | 16.1 | 30.6 | 0.00 | 0.00 | 0.00 | 86 | 1004.1 |
| 20260903214602 | 15 | 294 | 17.7 | 30.6 | 0.00 | 0.00 | 0.00 | 87 | 1004.4 |
| 20260903214042 | 15 | 273 | 16.1 | 29.0 | 0.00 | 0.00 | 0.00 | 87 | 1004.4 |
| 20260903213538 | 15 | 289 | 16.1 | 33.8 | 0.00 | 0.00 | 0.00 | 86 | 1004.4 |
| 20260903213049 | 15 | 257 | 17.7 | 33.8 | 0.00 | 0.00 | 0.00 | 85 | 1004.4 |
| 20260903212539 | 15 | 320 | 16.1 | 33.8 | 0.00 | 0.00 | 0.00 | 84 | 1004.4 |
| 20260903212039 | 15 | 277 | 17.7 | 30.6 | 0.00 | 0.00 | 0.00 | 84 | 1004.2 |
| 20260903211557 | 15 | 277 | 19.3 | 30.6 | 0.00 | 0.00 | 0.00 | 84 | 1004.2 |
| 20260903211042 | 15 | 261 | 16.1 | 32.2 | 0.00 | 0.00 | 0.00 | 85 | 1004.2 |
| 20260903210540 | 15 | 244 | 17.7 | 32.2 | 0.00 | 0.00 | 0.00 | 85 | 1004.1 |
| 20260903210056 | 15 | 273 | 19.3 | 32.2 | 0.00 | 0.00 | 0.00 | 84 | 1004.4 |
| 20260903205540 | 15 | 265 | 16.1 | 32.2 | 0.00 | 0.00 | 0.00 | 84 | 1004.7 |
| 20260903205044 | 14 | 267 | 12.9 | 22.5 | 0.00 | 0.00 | 0.00 | 85 | 1004.8 |
| 20260903204556 | 14 | 281 | 9.7 | 22.5 | 0.00 | 0.00 | 0.00 | 86 | 1004.9 |
| 20260903204039 | 13 | 284 | 8.0 | 22.5 | 0.00 | 0.00 | 0.00 | 86 | 1004.9 |
| 20260903203538 | 13 | 255 | 4.8 | 16.1 | 0.00 | 0.00 | 0.00 | 86 | 1005.1 |
| 20260903203100 | 13 | 269 | 6.4 | 16.1 | 0.00 | 0.00 | 0.00 | 86 | 1005.2 |
| 20260903202540 | 13 | 243 | 4.8 | 14.5 | 0.00 | 0.00 | 0.00 | 86 | 1005.5 |
| 20260903202043 | 14 | 258 | 4.8 | 19.3 | 0.00 | 0.00 | 0.00 | 86 | 1005.6 |
| 20260903201556 | 14 | 236 | 8.0 | 19.3 | 0.00 | 0.00 | 0.00 | 86 | 1005.8 |
| 20260903201039 | 14 | 263 | 9.7 | 19.3 | 0.00 | 0.00 | 0.00 | 86 | 1005.9 |
| 20260903200542 | 13 | 248 | 8.0 | 17.7 | 0.00 | 0.00 | 0.00 | 86 | 1006.2 |
| 20260903200051 | 13 | 263 | 8.0 | 17.7 | 0.00 | 0.00 | 0.00 | 87 | 1006.2 |
| 20260903195538 | 13 | 267 | 4.8 | 16.1 | 0.00 | 0.00 | 0.00 | 88 | 1006.2 |
| 20260903195039 | 13 | 98 | 4.8 | 16.1 | 0.00 | 0.00 | 0.00 | 88 | 1006.1 |
| 20260903194559 | 13 | 285 | 3.2 | 16.1 | 0.00 | 0.00 | 0.00 | 88 | 1006.2 |
| 20260903194041 | 13 | 243 | 4.8 | 14.5 | 0.00 | 0.00 | 0.00 | 88 | 1006.4 |
| 20260903193538 | 13 | 267 | 6.4 | 14.5 | 0.00 | 0.00 | 0.00 | 89 | 1006.4 |
| 20260903193057 | 13 | 40 | 1.6 | 12.9 | 0.00 | 0.00 | 0.00 | 89 | 1006.5 |
| 20260903192539 | 13 | 264 | 6.4 | 19.3 | 0.00 | 0.00 | 0.00 | 89 | 1006.6 |
| 20260903192039 | 13 | 49 | 8.0 | 19.3 | 0.00 | 0.00 | 0.00 | 89 | 1006.7 |
| 20260903191549 | 13 | 360 | 8.0 | 19.3 | 0.00 | 0.00 | 0.00 | 89 | 1006.7 |
| 20260903191039 | 13 | 301 | 9.7 | 19.3 | 0.00 | 0.00 | 0.00 | 90 | 1006.9 |
| 20260903190541 | 13 | 289 | 9.7 | 19.3 | 0.00 | 0.00 | 0.00 | 90 | 1007.0 |
| 20260903190058 | 13 | 281 | 12.9 | 19.3 | 0.00 | 0.00 | 0.00 | 90 | 1006.9 |
| 20260903185540 | 13 | 324 | 9.7 | 19.3 | 0.00 | 0.00 | 0.00 | 90 | 1007.0 |
| 20260903185038 | 13 | 284 | 11.3 | 20.9 | 0.00 | 0.00 | 0.00 | 90 | 1007.0 |
| 20260903184558 | 13 | 270 | 8.0 | 20.9 | 0.00 | 0.00 | 0.00 | 90 | 1007.0 |
| 20260903184040 | 13 | 284 | 8.0 | 17.7 | 0.00 | 0.00 | 0.00 | 90 | 1007.0 |
| 20260903183540 | 13 | 281 | 8.0 | 22.5 | 0.00 | 0.00 | 0.00 | 90 | 1007.1 |
| 20260903183055 | 13 | 276 | 12.9 | 25.7 | 0.00 | 0.00 | 0.00 | 90 | 1007.1 |
| 20260903182539 | 13 | 289 | 14.5 | 25.7 | 0.00 | 0.00 | 0.00 | 90 | 1007.2 |
| 20260903182038 | 13 | 300 | 16.1 | 25.7 | 0.00 | 0.00 | 0.00 | 91 | 1007.2 |
| 20260903181601 | 13 | 260 | 16.1 | 25.7 | 0.00 | 0.00 | 0.00 | 91 | 1007.2 |
| 20260903181039 | 13 | 275 | 14.5 | 24.1 | 0.00 | 0.00 | 0.00 | 91 | 1007.3 |
| 20260903180539 | 13 | 319 | 14.5 | 24.1 | 0.00 | 0.00 | 0.00 | 91 | 1007.1 |
| 20260903180115 | 13 | 278 | 14.5 | 24.1 | 0.00 | 0.00 | 0.00 | 91 | 1007.2 |
| 20260903175541 | 13 | 293 | 14.5 | 27.4 | 0.00 | 0.00 | 0.00 | 91 | 1007.4 |
| 20260903175041 | 13 | 273 | 16.1 | 27.4 | 0.00 | 0.00 | 0.00 | 91 | 1007.5 |
| 20260903174558 | 13 | 273 | 12.9 | 24.1 | 0.00 | 0.00 | 0.00 | 92 | 1007.6 |
| 20260903174041 | 13 | 286 | 11.3 | 22.5 | 0.00 | 0.00 | 0.00 | 92 | 1007.5 |
| 20260903173540 | 13 | 257 | 6.4 | 22.5 | 0.00 | 0.00 | 0.00 | 92 | 1007.6 |
| 20260903173057 | 13 | 312 | 9.7 | 20.9 | 0.00 | 0.00 | 0.00 | 92 | 1007.6 |
| 20260903172539 | 13 | 279 | 11.3 | 20.9 | 0.00 | 0.00 | 0.00 | 93 | 1007.7 |
| 20260903172039 | 13 | 271 | 11.3 | 24.1 | 0.00 | 0.00 | 0.00 | 93 | 1007.9 |
| 20260903171554 | 13 | 273 | 11.3 | 24.1 | 0.00 | 0.00 | 0.00 | 93 | 1007.8 |
| 20260903171040 | 13 | 321 | 11.3 | 24.1 | 0.00 | 0.00 | 0.00 | 93 | 1008.0 |
| 20260903170539 | 13 | 259 | 9.7 | 22.5 | 0.00 | 0.00 | 0.00 | 93 | 1008.0 |
| 20260903170047 | 13 | 270 | 9.7 | 22.5 | 0.00 | 0.00 | 0.00 | 93 | 1008.0 |
| 20260903165542 | 13 | 268 | 9.7 | 24.1 | 0.00 | 0.00 | 0.00 | 93 | 1008.1 |
| 20260903165044 | 13 | 259 | 9.7 | 25.7 | 0.00 | 0.00 | 0.00 | 93 | 1008.1 |
| 20260903164605 | 13 | 263 | 11.3 | 25.7 | 0.00 | 0.00 | 0.00 | 93 | 1008.2 |
| 20260903164040 | 13 | 270 | 12.9 | 22.5 | 0.00 | 0.00 | 0.00 | 93 | 1008.1 |
| 20260903163540 | 13 | 269 | 12.9 | 25.7 | 0.00 | 0.00 | 0.00 | 93 | 1008.2 |
| 20260903163055 | 13 | 288 | 14.5 | 25.7 | 0.00 | 0.00 | 0.00 | 93 | 1008.2 |
| 20260903162543 | 13 | 294 | 16.1 | 25.7 | 0.00 | 0.00 | 0.00 | 93 | 1008.1 |
| 20260903162035 | 13 | 323 | 14.5 | 24.1 | 0.00 | 0.00 | 0.00 | 93 | 1008.3 |
| 20260903161551 | 13 | 272 | 12.9 | 24.1 | 0.00 | 0.00 | 0.00 | 92 | 1008.3 |
| 20260903161035 | 13 | 291 | 12.9 | 29.0 | 0.00 | 0.00 | 0.00 | 92 | 1008.3 |
| 20260903160539 | 13 | 277 | 17.7 | 29.0 | 0.00 | 0.00 | 0.00 | 92 | 1008.2 |
| 20260903160107 | 13 | 286 | 17.7 | 27.4 | 0.00 | 0.00 | 0.00 | 92 | 1008.2 |
| 20260903155543 | 13 | 277 | 14.5 | 25.7 | 0.00 | 0.00 | 0.00 | 92 | 1008.2 |
| 20260903155036 | 13 | 321 | 14.5 | 27.4 | 0.00 | 0.00 | 0.00 | 91 | 1008.4 |
| 20260903154558 | 13 | 274 | 16.1 | 35.4 | 0.00 | 0.00 | 0.00 | 91 | 1008.5 |
| 20260903154036 | 13 | 246 | 19.3 | 35.4 | 0.00 | 0.00 | 0.00 | 91 | 1008.6 |
| 20260903153537 | 13 | 264 | 22.5 | 35.4 | 0.00 | 0.00 | 0.00 | 91 | 1008.6 |
| 20260903153054 | 13 | 283 | 16.1 | 29.0 | 0.00 | 0.00 | 0.00 | 91 | 1008.7 |
| 20260903152536 | 14 | 252 | 14.5 | 30.6 | 0.00 | 0.00 | 0.00 | 91 | 1008.8 |
| 20260903152037 | 14 | 299 | 19.3 | 30.6 | 0.00 | 0.00 | 0.00 | 90 | 1008.7 |
| 20260903151553 | 14 | 279 | 17.7 | 32.2 | 0.00 | 0.00 | 0.00 | 90 | 1008.8 |
| 20260903151036 | 14 | 300 | 22.5 | 32.2 | 0.00 | 0.00 | 0.00 | 89 | 1008.7 |
| 20260903150536 | 14 | 274 | 17.7 | 25.7 | 0.00 | 0.00 | 0.00 | 89 | 1008.8 |
| 20260903150053 | 14 | 292 | 16.1 | 25.7 | 0.00 | 0.00 | 0.00 | 89 | 1008.9 |
| 20260903145535 | 14 | 325 | 14.5 | 27.4 | 0.00 | 0.00 | 0.00 | 89 | 1009.0 |
| 20260903145038 | 14 | 274 | 14.5 | 27.4 | 0.00 | 0.00 | 0.00 | 89 | 1009.0 |
| 20260903144558 | 13 | 263 | 14.5 | 27.4 | 0.00 | 0.00 | 0.00 | 89 | 1009.0 |
| 20260903144039 | 13 | 296 | 12.9 | 22.5 | 0.00 | 0.00 | 0.00 | 89 | 1009.3 |
| 20260903143539 | 13 | 327 | 14.5 | 22.5 | 0.00 | 0.00 | 0.00 | 89 | 1009.4 |
| 20260903143056 | 13 | 28 | 9.7 | 19.3 | 0.00 | 0.00 | 0.00 | 89 | 1009.4 |
| 20260903142535 | 13 | 297 | 11.3 | 19.3 | 0.00 | 0.00 | 0.00 | 89 | 1009.5 |
| 20260903142036 | 13 | 268 | 8.0 | 14.5 | 0.00 | 0.00 | 0.00 | 90 | 1009.5 |
| 20260903141554 | 13 | 256 | 3.2 | 11.3 | 0.00 | 0.00 | 0.00 | 90 | 1009.6 |
| 20260903141037 | 13 | 287 | 0.0 | 9.7 | 0.00 | 0.00 | 0.00 | 90 | 1009.7 |
| 20260903140541 | 13 | 272 | 4.8 | 11.3 | 0.00 | 0.00 | 0.00 | 90 | 1009.8 |
| 20260903140051 | 13 | 266 | 4.8 | 22.5 | 0.00 | 0.00 | 0.00 | 90 | 1009.8 |
| 20260903135535 | 13 | 289 | 6.4 | 22.5 | 0.00 | 0.00 | 0.00 | 90 | 1010.0 |
| 20260903135036 | 13 | 68 | 6.4 | 14.5 | 0.00 | 0.00 | 0.00 | 90 | 1010.0 |
| 20260903134546 | 13 | 263 | 4.8 | 11.3 | 0.00 | 0.00 | 0.00 | 90 | 1010.1 |
| 20260903134036 | 13 | 272 | 4.8 | 14.5 | 0.00 | 0.00 | 0.00 | 90 | 1010.2 |
| 20260903133535 | 13 | 282 | 4.8 | 14.5 | 0.00 | 0.00 | 0.00 | 90 | 1010.2 |
| 20260903133057 | 13 | 276 | 6.4 | 16.1 | 0.00 | 0.00 | 0.00 | 90 | 1010.2 |
| 20260903132537 | 13 | 270 | 6.4 | 19.3 | 0.00 | 0.00 | 0.00 | 90 | 1010.3 |
| 20260903132035 | 13 | 273 | 9.7 | 22.5 | 0.00 | 0.00 | 0.00 | 90 | 1010.4 |
| 20260903131554 | 13 | 289 | 14.5 | 22.5 | 0.00 | 0.00 | 0.00 | 91 | 1010.4 |
| 20260903131039 | 13 | 329 | 11.3 | 22.5 | 0.00 | 0.00 | 0.00 | 91 | 1010.4 |
| 20260903130541 | 13 | 256 | 8.0 | 17.7 | 0.00 | 0.00 | 0.00 | 91 | 1010.3 |
| 20260903130131 | 13 | 271 | 11.3 | 19.3 | 0.00 | 0.00 | 0.00 | 91 | 1010.3 |
| 20260903125539 | 14 | 263 | 9.7 | 24.1 | 0.00 | 0.00 | 0.00 | 91 | 1010.3 |
| 20260903125039 | 14 | 319 | 12.9 | 24.1 | 0.00 | 0.00 | 0.00 | 91 | 1010.4 |
| 20260903124555 | 14 | 292 | 12.9 | 22.5 | 0.00 | 0.00 | 0.00 | 91 | 1010.5 |
| 20260903124038 | 14 | 290 | 9.7 | 19.3 | 0.00 | 0.00 | 0.00 | 91 | 1010.6 |
| 20260903123538 | 14 | 287 | 11.3 | 20.9 | 0.00 | 0.00 | 0.00 | 91 | 1010.8 |
| 20260903123102 | 14 | 265 | 11.3 | 27.4 | 0.00 | 0.00 | 0.00 | 91 | 1010.8 |
| 20260903122540 | 14 | 267 | 14.5 | 27.4 | 0.00 | 0.00 | 0.00 | 91 | 1010.9 |
| 20260903122041 | 14 | 294 | 11.3 | 20.9 | 0.00 | 0.00 | 0.00 | 91 | 1010.8 |
| 20260903121550 | 13 | 265 | 9.7 | 22.5 | 0.00 | 0.00 | 0.00 | 91 | 1010.8 |
| 20260903121040 | 13 | 301 | 9.7 | 22.5 | 0.00 | 0.00 | 0.00 | 92 | 1010.9 |
| 20260903120540 | 13 | 288 | 12.9 | 20.9 | 0.00 | 0.00 | 0.00 | 92 | 1011.0 |
| 20260903120104 | 13 | 278 | 9.7 | 19.3 | 0.00 | 0.00 | 0.00 | 92 | 1011.0 |
| 20260903115540 | 13 | 263 | 11.3 | 19.3 | 0.00 | 0.00 | 0.00 | 92 | 1011.0 |
| 20260903115038 | 13 | 298 | 11.3 | 24.1 | 0.00 | 0.00 | 0.00 | 92 | 1011.1 |
| 20260903114600 | 13 | 277 | 12.9 | 29.0 | 0.00 | 0.00 | 0.00 | 92 | 1011.1 |
| 20260903114044 | 13 | 272 | 17.7 | 29.0 | 0.00 | 0.00 | 0.00 | 92 | 1011.3 |
| 20260903113542 | 13 | 298 | 16.1 | 27.4 | 0.00 | 0.00 | 0.00 | 92 | 1011.3 |
| 20260903113053 | 13 | 276 | 17.7 | 27.4 | 0.00 | 0.00 | 0.00 | 92 | 1011.4 |
| 20260903112540 | 13 | 302 | 14.5 | 25.7 | 0.00 | 0.00 | 0.00 | 92 | 1011.5 |
| 20260903112039 | 13 | 290 | 14.5 | 24.1 | 0.00 | 0.00 | 0.00 | 92 | 1011.4 |
| 20260903111558 | 13 | 308 | 8.0 | 12.9 | 0.00 | 0.00 | 0.00 | 92 | 1011.5 |
| 20260903111042 | 13 | 275 | 4.8 | 11.3 | 0.00 | 0.00 | 0.00 | 91 | 1011.6 |
| 20260903110539 | 13 | 250 | 3.2 | 11.3 | 0.00 | 0.00 | 0.00 | 91 | 1011.7 |
| 20260903110120 | 13 | 269 | 4.8 | 11.3 | 0.00 | 0.00 | 0.00 | 91 | 1011.8 |
| 20260903105539 | 13 | 294 | 1.6 | 11.3 | 0.00 | 0.00 | 0.00 | 91 | 1011.7 |
| 20260903105039 | 13 | 320 | 6.4 | 11.3 | 0.00 | 0.00 | 0.00 | 91 | 1012.0 |
| 20260903104556 | 13 | 277 | 3.2 | 9.7 | 0.00 | 0.00 | 0.00 | 91 | 1011.9 |
| 20260903104038 | 13 | 246 | 1.6 | 11.3 | 0.00 | 0.00 | 0.00 | 90 | 1012.0 |
| 20260903103542 | 13 | 277 | 1.6 | 11.3 | 0.00 | 0.00 | 0.00 | 90 | 1011.9 |
| 20260903103052 | 13 | 277 | 3.2 | 9.7 | 0.00 | 0.00 | 0.00 | 90 | 1012.0 |
| 20260903102539 | 13 | 273 | 1.6 | 9.7 | 0.00 | 0.00 | 0.00 | 90 | 1012.0 |
| 20260903102041 | 12 | 255 | 4.8 | 11.3 | 0.00 | 0.00 | 0.00 | 90 | 1012.1 |
| 20260903101608 | 12 | 273 | 3.2 | 11.3 | 0.00 | 0.00 | 0.00 | 90 | 1012.1 |
| 20260903101039 | 12 | 302 | 4.8 | 6.4 | 0.00 | 0.00 | 0.00 | 90 | 1012.1 |
| 20260903100539 | 12 | 336 | 3.2 | 6.4 | 0.00 | 0.00 | 0.00 | 90 | 1012.2 |
| 20260903100059 | 12 | 271 | 1.6 | 6.4 | 0.00 | 0.00 | 0.00 | 90 | 1012.2 |
| 20260903095538 | 12 | 255 | 1.6 | 6.4 | 0.00 | 0.00 | 0.00 | 90 | 1012.3 |
| 20260903095038 | 12 | 259 | 3.2 | 6.4 | 0.00 | 0.00 | 0.00 | 90 | 1012.4 |
| 20260903094600 | 12 | 329 | 3.2 | 6.4 | 0.00 | 0.00 | 0.00 | 90 | 1012.4 |
| 20260903094039 | 12 | 271 | 1.6 | 6.4 | 0.00 | 0.00 | 0.00 | 90 | 1012.5 |
| 20260903093539 | 12 | 269 | 4.8 | 6.4 | 0.00 | 0.00 | 0.00 | 90 | 1012.4 |
| 20260903093051 | 12 | 261 | 3.2 | 6.4 | 0.00 | 0.00 | 0.00 | 90 | 1012.4 |
| 20260903092539 | 12 | 265 | 1.6 | 4.8 | 0.00 | 0.00 | 0.00 | 90 | 1012.4 |
| 20260903092039 | 12 | 264 | 3.2 | 6.4 | 0.00 | 0.00 | 0.00 | 90 | 1012.4 |
| 20260903091600 | 12 | 261 | 1.6 | 6.4 | 0.00 | 0.00 | 0.00 | 90 | 1012.4 |
| 20260903091039 | 12 | 265 | 1.6 | 3.2 | 0.00 | 0.00 | 0.00 | 91 | 1012.4 |
| 20260903090539 | 12 | 266 | 1.6 | 3.2 | 0.00 | 0.00 | 0.00 | 91 | 1012.5 |
| 20260903090059 | 12 | 267 | 0.0 | 3.2 | 0.00 | 0.00 | 0.00 | 90 | 1012.5 |
| 20260903085538 | 12 | 267 | 0.0 | 4.8 | 0.00 | 0.00 | 0.00 | 90 | 1012.5 |
| 20260903085038 | 12 | 265 | 0.0 | 6.4 | 0.00 | 0.00 | 0.00 | 90 | 1012.6 |
| 20260903084555 | 12 | 265 | 3.2 | 6.4 | 0.00 | 0.00 | 0.00 | 90 | 1012.5 |
| 20260903084040 | 12 | 260 | 1.6 | 4.8 | 0.00 | 0.00 | 0.00 | 90 | 1012.5 |
| 20260903083539 | 12 | 270 | 1.6 | 4.8 | 0.00 | 0.00 | 0.00 | 90 | 1012.4 |
| 20260903083059 | 12 | 265 | 0.0 | 4.8 | 0.00 | 0.00 | 0.00 | 89 | 1012.6 |
| 20260903082538 | 13 | 0 | 0.0 | 4.8 | 0.00 | 0.00 | 0.00 | 89 | 1012.6 |
| 20260903082040 | 13 | 273 | 1.6 | 4.8 | 0.00 | 0.00 | 0.00 | 89 | 1012.5 |
| 20260903081550 | 13 | 270 | 0.0 | 11.3 | 0.00 | 0.00 | 0.00 | 89 | 1012.6 |
| 20260903081038 | 13 | 0 | 1.6 | 11.3 | 0.00 | 0.00 | 0.00 | 90 | 1012.8 |
| 20260903080539 | 13 | 281 | 6.4 | 14.5 | 0.00 | 0.00 | 0.00 | 90 | 1012.7 |
| 20260903080104 | 13 | 298 | 8.0 | 14.5 | 0.00 | 0.00 | 0.00 | 90 | 1012.7 |
| 20260903075538 | 13 | 259 | 4.8 | 11.3 | 0.00 | 0.00 | 0.00 | 90 | 1012.7 |
| 20260903075038 | 13 | 253 | 4.8 | 11.3 | 0.00 | 0.00 | 0.00 | 89 | 1012.6 |
| 20260903074608 | 13 | 230 | 1.6 | 12.9 | 0.00 | 0.00 | 0.00 | 89 | 1012.7 |
| 20260903074038 | 13 | 232 | 4.8 | 12.9 | 0.00 | 0.00 | 0.00 | 89 | 1012.7 |
| 20260903073538 | 13 | 250 | 4.8 | 14.5 | 0.00 | 0.00 | 0.00 | 89 | 1012.7 |
| 20260903073100 | 13 | 262 | 8.0 | 17.7 | 0.00 | 0.00 | 0.00 | 89 | 1012.8 |
| 20260903072540 | 13 | 268 | 8.0 | 17.7 | 0.00 | 0.00 | 0.00 | 89 | 1012.7 |
| 20260903072043 | 13 | 270 | 6.4 | 14.5 | 0.00 | 0.00 | 0.00 | 89 | 1012.7 |
| 20260903071553 | 13 | 286 | 4.8 | 12.9 | 0.00 | 0.00 | 0.00 | 89 | 1012.7 |
| 20260903071040 | 13 | 242 | 4.8 | 14.5 | 0.00 | 0.00 | 0.00 | 89 | 1012.8 |
| 20260903070538 | 13 | 261 | 8.0 | 14.5 | 0.00 | 0.00 | 0.00 | 89 | 1012.7 |
| 20260903065539 | 13 | 249 | 6.4 | 16.1 | 0.00 | 0.00 | 0.00 | 89 | 1012.8 |
| 20260903065035 | 13 | 254 | 6.4 | 16.1 | 0.00 | 0.00 | 0.00 | 89 | 1012.7 |
| 20260903064602 | 13 | 240 | 6.4 | 14.5 | 0.00 | 0.00 | 0.00 | 88 | 1012.7 |
| 20260903064038 | 13 | 262 | 6.4 | 17.7 | 0.00 | 0.00 | 0.00 | 88 | 1012.7 |
| 20260903063535 | 13 | 261 | 9.7 | 17.7 | 0.00 | 0.00 | 0.00 | 88 | 1012.8 |
| 20260903063054 | 13 | 239 | 8.0 | 16.1 | 0.00 | 0.00 | 0.00 | 88 | 1012.7 |
| 20260903062537 | 13 | 44 | 6.4 | 14.5 | 0.00 | 0.00 | 0.00 | 88 | 1012.7 |
| 20260903062037 | 13 | 312 | 8.0 | 14.5 | 0.00 | 0.00 | 0.00 | 88 | 1012.6 |
| 20260903061601 | 13 | 239 | 6.4 | 22.5 | 0.00 | 0.00 | 0.00 | 88 | 1012.5 |
| 20260903061038 | 13 | 274 | 8.0 | 22.5 | 0.00 | 0.00 | 0.00 | 88 | 1012.5 |
| 20260903060538 | 14 | 238 | 6.4 | 16.1 | 0.00 | 0.00 | 0.00 | 88 | 1012.6 |
| 20260903060058 | 14 | 267 | 6.4 | 17.7 | 0.00 | 0.00 | 0.00 | 88 | 1012.7 |
| 20260903055539 | 14 | 250 | 8.0 | 17.7 | 0.00 | 0.00 | 0.00 | 87 | 1012.7 |
| 20260903055038 | 14 | 244 | 8.0 | 17.7 | 0.00 | 0.00 | 0.00 | 87 | 1012.8 |
| 20260903054557 | 14 | 251 | 8.0 | 16.1 | 0.00 | 0.00 | 0.00 | 86 | 1012.7 |
| 20260903054035 | 14 | 255 | 6.4 | 20.9 | 0.00 | 0.00 | 0.00 | 86 | 1012.7 |
| 20260903053539 | 14 | 256 | 9.7 | 20.9 | 0.00 | 0.00 | 0.00 | 85 | 1012.7 |
| 20260903053107 | 14 | 261 | 8.0 | 19.3 | 0.00 | 0.00 | 0.00 | 85 | 1012.7 |
| 20260903052539 | 14 | 237 | 11.3 | 20.9 | 0.00 | 0.00 | 0.00 | 84 | 1012.7 |
| 20260903052042 | 14 | 254 | 9.7 | 20.9 | 0.00 | 0.00 | 0.00 | 84 | 1012.7 |
| 20260903051554 | 14 | 265 | 12.9 | 20.9 | 0.00 | 0.00 | 0.00 | 84 | 1012.7 |
| 20260903051038 | 14 | 259 | 12.9 | 20.9 | 0.00 | 0.00 | 0.00 | 83 | 1012.8 |
| 20260903050541 | 14 | 247 | 12.9 | 19.3 | 0.00 | 0.00 | 0.00 | 83 | 1012.7 |
| 20260903045539 | 15 | 257 | 11.3 | 24.1 | 0.00 | 0.00 | 0.00 | 83 | 1013.0 |
| 20260903045041 | 15 | 245 | 12.9 | 24.1 | 0.00 | 0.00 | 0.00 | 82 | 1013.0 |
| 20260903044603 | 15 | 252 | 12.9 | 22.5 | 0.00 | 0.00 | 0.00 | 82 | 1013.0 |
| 20260903044038 | 15 | 247 | 12.9 | 22.5 | 0.00 | 0.00 | 0.00 | 83 | 1013.0 |
| 20260903043539 | 14 | 253 | 14.5 | 22.5 | 0.00 | 0.00 | 0.00 | 82 | 1013.1 |
| 20260903043049 | 14 | 253 | 14.5 | 22.5 | 0.00 | 0.00 | 0.00 | 82 | 1013.1 |
| 20260903042539 | 14 | 252 | 16.1 | 25.7 | 0.00 | 0.00 | 0.00 | 81 | 1013.1 |